CZ-6A DEB, 69092

Orbit data source: Space-Track

CZ-6A DEB, 69092 is space debris in SSO originally from a launch on Fri, 11 Nov 2022 UTC launched from the Taiyaun Space Center, China (TSC). Debris objects in space refer to the collection of defunct objects orbiting the Earth. Examples of debris include non-operational satellites, rocket bodies, and fragments generated from explosions, collisions, or faulty payload assembly.

Loading next visibility...
Identifier
69092, 2022-151AJK
Orbit
SSO
Country
Flag of CNCN / PRC
Related business
Manufacturer
SAST
Mission
Spacecraft
Bus & Motor
Unknown
Mass
Unknown
Launch date (UTC)
2022-11-11 (4 years ago)
Launch vehicle
Unknown
Launch site
Taiyaun Space Center, China (TSC)
Object type
Payload
Rocket body
Debris
Shape & HBR
Unknown
Radar Cross Section
Small (<0.1 m²)

Expand to show TLE details & history
Last TLE update: 13 hours ago

TLE from 13 hours ago
0 CZ-6A DEB
1 69092U 22151AJK 26206.53771032  .00007075  00000-0  25100-2 0  9990
2 69092  98.8341 234.0846 0031236 159.9854 200.2563 14.34483592166941
Epoch: 2026-07-25T12:54Z
TLE epoch observation values (Epoch: 2026-07-25T12:54:18.171Z)
Latitude
-0.00001°
Longitude
97.26033°
Altitude
800.693 km
Speed
7.442 km/s
True Right ascension
15h 36m 20s
True Declination
0° 00' 00"
Sunlit
Object was in daylight at epoch
Visualization orbit readout
Latitude
Unknown
Longitude
Unknown
Altitude
Unknown
Speed
Unknown
Apparent Right ascension
Unknown
Apparent Declination
Unknown
Sunlit
N/A
Visualization observer readout
Local Sidereal Time
15:09:27
Azimuth
Unknown
Elevation
Unknown
Doppler factor
Unknown
Orbital elements
Apogee altitude
796.268 km
Perigee altitude
751.588 km
Semi-major axis
7,152.065 km
Eccentricity
0.00312
Inclination
98.8341°
RAAN
234.0846°
Arg. of periapsis
159.9854°
True anomaly
200.13283°
Mean anomaly
200.2563°
Eccentric anomaly
200.19452°
Mean motion
3.58836 °/min
Orbital period
100.32 mins
BSTAR
0.00251
Loading maneuver chart data...
Computing Atmospheric mass density...
Loading historical data...
Loading historical data...
Loading historical data...
Loading historical data...
Loading historical data...
Loading historical data...
Loading historical data...

Documentation

Showing up to 5 results
|